Simultaneous Nadir Overpasses (SNOs) Predictions

Prediction of SNOs between NOAA-20 and AQUA Satellite Orbit:

Table of predicted SNOs for the next 14.0 days since TLE Epoch: 3/16/2024
Index Date (NOAA-20) Time (NOAA-20) Lat,Lon (NOAA-20) SZA (NOAA-20 ) Date (AQUA) Time (AQUA) Lat,Lon (AQUA) SZA (AQUA ) Distance(km) Time Diff (sec)
1 03/18/2024 10:51:59 81.11, -63.68 89.52 03/18/2024 10:52:53 81.12, -63.60 89.47 1.56 54
2 03/18/2024 11:42:43 -81.13, 104.11 90.57 03/18/2024 11:42:16 -81.13, 104.20 90.57 1.49 27
3 03/20/2024 23:45:53 81.11, 102.79 88.51 03/20/2024 23:46:55 81.11, 102.85 88.46 1.06 62
4 03/21/2024 00:36:37 -81.13, -89.39 91.59 03/21/2024 00:36:18 -81.12, -89.33 91.59 1.12 19
5 03/23/2024 12:39:47 81.11, -90.79 87.50 03/23/2024 12:40:56 81.11, -90.72 87.45 1.08 69
6 03/23/2024 13:30:30 -81.13, 77.44 92.65 03/23/2024 13:30:18 -81.14, 77.49 92.65 1.00 12
7 03/26/2024 01:34:38 79.82, 56.11 89.75 03/26/2024 01:35:51 79.38, 58.09 89.43 63.09 73
8 03/26/2024 02:24:23 -81.13,-116.16 93.65 03/26/2024 02:24:17 -81.13,-116.08 93.65 1.33 6



Historial Predications of SNOs between NOAA-20 and AQUA
